Theta_e
338 335 338 340 341 343 340 337 337 330 328 328 328 328 327 326 323 322 321 317 314 313 311 310 309 308 307 307 307 306 305 304 302 303 303 302 301 301 301 302 303 303 303
338 341 341 340 341 342 338 337 336 329 327 328 328 329 328 326 323 322 320 316 313 312 310 310 309 308 306 305 304 304 303 303 303 302 301 301 300 301 302 302 301 302 303
337 341 340 342 342 340 336 337 334 328 327 328 329 329 327 326 324 321 320 316 313 312 311 309 309 307 305 304 303 301 302 302 303 302 301 300 301 301 301 301 301 302 302
337 341 340 339 339 339 337 338 332 328 326 327 328 329 327 326 324 320 318 315 312 311 310 308 306 302 302 303 300 301 301 301 301 302 301 300 300 300 301 301 301 301 302
340 340 338 337 337 339 341 336 331 327 326 327 328 328 327 325 322 319 315 313 311 309 308 306 305 302 298 298 300 301 302 303 302 302 301 300 300 301 301 301 301 302 301
341 340 338 337 336 338 336 332 329 327 327 327 327 326 322 320 320 316 313 312 310 309 307 305 304 303 300 297 300 303 304 303 302 301 300 300 300 300 301 301 301 301 300
342 340 339 337 336 337 335 331 329 328 328 327 326 323 322 319 318 314 312 310 309 308 305 305 305 303 298 297 303 303 302 301 300 300 300 301 300 302 302 302 301 301 302
342 341 339 338 337 336 334 331 330 328 327 326 323 321 318 316 314 313 310 308 307 307 306 307 305 303 297 300 303 302 302 300 300 300 300 300 302 302 302 302 301 302 302
341 340 339 338 337 334 332 331 328 325 325 323 321 317 314 313 313 310 309 307 308 308 308 306 305 301 298 299 303 302 301 299 300 301 300 300 302 302 302 302 302 301 301
342 341 339 338 337 334 333 332 333 325 322 319 315 314 312 312 310 308 307 309 308 308 307 306 306 301 297 296 300 298 299 300 301 300 300 300 300 300 301 301 302 301 301
343 342 340 338 336 335 334 330 325 322 318 314 311 309 310 311 308 307 307 308 308 306 306 306 304 302 297 296 298 299 300 301 301 301 300 300 301 301 302 302 302 302 301
334 338 339 338 337 334 329 324 321 318 312 309 306 306 308 308 307 307 308 308 307 304 307 305 302 303 296 297 298 300 301 302 302 301 301 302 302 302 302 302 302 302 301
331 331 334 335 331 329 324 320 316 313 311 308 306 305 304 307 308 308 308 308 305 305 307 304 302 303 297 298 300 301 301 302 302 302 302 303 303 302 302 302 302 302 302
325 325 328 324 323 322 320 318 315 313 311 308 307 305 303 304 305 306 306 306 304 306 307 307 303 303 299 300 300 301 301 302 302 302 303 303 302 302 301 302 302 302 302
322 319 318 318 320 319 318 317 315 314 313 309 307 305 303 302 304 305 306 305 306 307 305 304 305 304 299 299 301 301 302 302 303 303 303 304 302 302 301 301 302 303 302
321 319 318 318 317 317 315 315 315 314 312 311 310 307 305 305 304 305 304 304 306 304 303 304 305 304 298 298 301 302 302 303 303 303 303 303 302 302 301 302 302 303 303
319 318 317 316 316 314 314 313 308 311 310 309 306 306 310 307 306 303 303 301 305 301 303 303 303 301 297 297 300 301 302 303 304 304 304 303 303 302 302 302 302 303 303
319 318 316 315 314 313 313 311 309 309 308 306 307 307 307 307 305 302 300 300 302 300 301 300 300 299 298 300 302 304 305 305 304 304 304 304 302 303 303 303 302 302 303
317 315 314 314 313 312 312 310 310 309 308 305 304 305 306 306 302 300 299 299 300 300 299 299 301 301 302 303 303 303 304 305 303 303 304 304 303 303 303 303 303 304 303
316 315 314 313 312 311 310 309 309 308 306 304 304 304 304 304 302 299 298 299 300 300 300 298 299 301 302 302 302 301 303 303 303 303 304 304 303 302 302 304 304 304 304
313 312 311 311 311 310 310 309 309 308 307 306 305 303 304 303 302 303 302 301 302 302 299 298 300 303 302 301 299 299 300 301 304 303 303 303 304 303 303 304 304 304 304
312 311 311 310 310 309 308 308 307 306 305 305 304 305 305 303 302 304 304 304 304 304 299 298 301 303 303 302 301 297 300 303 304 304 303 304 303 303 304 304 304 304 304
311 310 309 309 308 307 307 307 306 305 305 304 304 304 303 302 303 304 304 304 304 303 299 298 299 302 302 300 298 299 302 303 303 304 304 304 304 304 304 304 303 304 304
311 309 309 308 307 306 306 306 306 305 303 303 302 301 303 303 303 303 302 302 303 304 304 302 301 302 301 298 297 297 299 302 302 303 305 305 304 304 304 304 303 304 304
310 309 309 308 307 306 306 306 305 304 303 303 302 302 303 303 301 301 302 302 301 301 302 302 302 302 300 299 299 299 298 300 303 303 304 305 304 304 303 303 303 303 305
310 310 309 308 307 307 306 306 306 304 303 303 303 303 302 302 303 302 302 301 301 301 301 301 301 301 301 301 302 301 298 298 303 302 304 304 304 303 303 303 303 304 304
Wind_Speed
44 38 34 36 37 37 40 41 40 37 36 41 37 37 35 31 29 26 23 20 18 18 17 14 13 13 13 13 13 10 10 11 10 4 5 5 8 11 15 15 17 17 18
39 36 35 35 38 39 39 39 38 39 37 41 40 39 38 34 31 28 27 24 23 22 19 15 16 13 12 14 13 11 9 8 10 6 3 5 6 11 14 17 19 19 19
38 33 29 34 37 40 40 38 38 39 38 42 43 43 41 38 33 30 29 28 26 23 20 17 18 15 14 13 10 10 10 9 8 6 4 6 6 12 15 18 19 18 15
34 33 32 33 36 41 37 37 41 40 40 44 45 45 44 40 36 34 33 32 31 26 22 21 17 14 14 12 11 12 10 9 6 5 6 4 5 11 15 18 18 18 15
32 33 33 30 32 37 38 40 41 41 43 46 45 45 46 44 41 38 36 34 33 26 23 21 18 14 12 10 11 10 7 5 5 5 3 3 5 11 14 15 13 15 15
36 34 29 31 34 38 39 39 40 42 42 42 44 47 46 42 41 41 39 38 33 28 29 23 19 14 11 9 10 6 5 6 8 6 3 2 6 10 12 11 10 10 7
35 31 31 32 34 41 40 41 41 41 42 43 42 43 46 44 45 41 36 33 29 27 25 23 18 13 9 9 11 9 9 7 7 5 3 2 6 8 8 10 13 15 15
33 33 35 38 39 40 41 38 33 36 40 40 39 38 38 40 43 37 38 37 29 32 27 21 20 15 10 13 15 13 8 6 5 3 1 2 5 7 8 10 12 15 16
36 40 42 41 38 34 31 33 29 30 34 35 36 37 34 36 41 40 39 34 33 31 25 23 17 13 10 13 14 12 10 8 4 3 5 5 5 5 7 10 11 14 13
31 41 42 45 41 38 41 39 44 40 32 33 33 36 38 43 39 35 34 34 34 30 27 23 19 14 10 14 14 15 14 8 10 9 6 6 5 4 6 9 9 11 9
26 28 31 44 43 40 38 34 37 36 33 33 32 36 42 48 42 39 38 38 35 33 30 25 22 16 12 14 16 16 11 10 8 6 6 7 5 6 7 7 8 9 10
12 19 35 36 38 34 36 34 33 36 34 32 32 31 35 42 43 40 39 37 38 33 30 27 23 18 13 16 17 14 10 9 7 6 7 7 4 7 8 7 7 8 9
16 19 19 31 31 36 37 35 31 35 33 31 32 31 31 39 45 43 40 33 30 31 27 25 24 19 13 17 17 14 11 9 7 7 6 3 2 2 4 4 6 8 10
20 18 26 25 27 28 29 30 29 30 29 29 29 28 29 33 32 36 34 31 30 27 22 25 26 20 17 20 18 15 12 10 8 6 4 4 4 2 3 6 8 11 14
13 10 8 23 20 24 26 29 31 34 42 38 35 38 37 32 42 46 44 40 36 28 23 22 25 26 23 23 20 17 13 11 9 7 5 10 9 5 6 7 9 10 12
13 3 3 6 11 17 21 19 21 30 36 39 44 45 35 32 41 44 42 37 33 26 21 25 29 31 27 27 23 19 15 14 13 10 10 13 11 8 8 9 9 11 13
3 8 11 11 14 17 19 22 18 17 25 28 36 40 44 41 37 42 40 32 30 25 25 25 28 28 28 27 23 18 16 15 15 15 16 17 15 13 11 13 14 14 17
11 15 17 16 14 17 19 20 23 26 25 27 32 37 34 30 32 38 36 33 29 26 26 25 25 26 25 23 20 17 14 14 13 14 20 20 19 18 16 16 17 18 19
16 17 20 19 18 17 18 20 21 22 23 24 26 28 27 27 31 34 34 31 30 29 28 27 27 26 25 22 17 16 11 14 16 16 21 23 20 19 18 18 21 23 20
21 19 20 19 19 18 17 18 19 21 23 24 26 25 31 30 29 32 34 35 34 31 32 30 28 26 25 22 19 15 13 13 19 20 22 23 20 20 18 19 21 21 19
18 17 18 16 17 19 20 20 21 21 20 22 22 27 34 27 24 29 31 31 30 31 33 32 30 27 24 19 19 18 16 16 21 23 24 22 19 19 19 19 19 17 17
18 17 19 15 16 17 18 19 18 19 20 21 22 28 28 25 26 29 25 25 28 32 32 32 29 27 26 23 20 20 18 18 16 21 26 24 21 20 19 19 18 17 18
19 19 16 17 18 17 18 17 18 19 19 22 26 26 28 26 29 28 29 28 28 30 32 33 31 28 28 25 24 23 21 23 20 22 26 28 28 25 22 21 21 19 18
18 20 18 17 18 17 16 17 16 19 19 19 20 23 28 26 26 26 26 24 27 31 33 33 33 31 29 26 26 27 27 26 24 21 22 28 31 28 26 25 23 20 17
15 17 16 15 17 15 17 17 18 18 17 17 19 21 23 24 24 23 22 23 25 26 30 31 31 31 30 28 27 28 30 29 27 26 28 30 30 27 26 25 26 23 21
14 15 14 14 17 18 18 19 18 20 22 22 18 12 16 16 16 21 23 26 29 29 30 29 30 30 27 26 26 27 31 32 31 29 28 30 31 30 29 29 30 25 24
Wind_Direction
208 208 207 207 210 211 212 207 207 205 202 196 189 186 182 182 181 183 181 175 175 165 162 154 141 145 139 135 134 123 114 124 128 119 110 58 10 34 34 32 25 18 16
204 204 208 210 211 213 211 207 205 205 202 199 194 188 185 188 185 185 180 179 176 171 167 166 155 158 142 138 130 116 108 114 121 129 75 23 59 36 25 20 20 19 16
204 201 199 206 209 209 208 208 207 205 202 199 199 193 189 190 190 191 189 184 182 182 177 176 166 169 154 146 136 133 133 123 121 126 80 74 48 23 11 11 12 16 15
195 199 199 201 202 206 207 208 207 205 201 201 202 197 193 193 195 191 188 187 180 179 178 173 165 167 157 154 144 137 135 134 127 96 70 60 18 8 5 7 11 11 15
195 197 201 196 198 204 207 207 206 204 203 203 201 200 196 197 194 189 188 183 178 173 173 165 154 151 145 145 152 150 161 171 151 104 94 28 6 6 3 8 7 8 14
193 197 194 190 192 198 199 198 199 200 203 202 201 196 193 192 194 191 187 181 175 169 173 168 155 152 146 148 160 160 181 162 138 144 137 328 4 1 15 15 3 358 326
197 191 190 188 189 194 195 193 196 198 198 197 196 194 194 193 194 184 182 172 169 167 177 168 158 160 154 150 154 152 146 140 146 157 164 351 348 26 17 5 357 351 336
195 188 185 186 193 191 187 185 189 190 193 194 194 194 189 192 184 180 169 167 167 171 180 181 173 164 160 162 162 165 166 164 156 175 310 21 66 46 24 1 352 358 350
194 192 189 189 186 179 182 173 183 190 190 190 189 188 181 181 173 169 168 170 166 169 173 196 176 172 162 171 178 178 184 167 180 154 124 97 87 30 11 10 12 5 351
231 204 192 188 186 179 177 174 195 195 184 180 178 182 180 170 169 166 167 162 167 167 182 186 182 180 174 176 177 173 166 151 126 127 110 101 77 38 25 21 18 13 0
265 237 217 182 176 180 176 176 173 169 170 169 163 169 171 167 165 169 176 177 174 174 185 186 179 179 180 171 168 171 157 125 125 131 105 86 48 67 20 12 32 20 14
290 284 214 202 164 165 162 160 162 158 154 153 152 153 159 163 169 179 183 186 175 181 184 184 178 182 178 170 175 169 160 139 139 137 107 76 49 45 47 58 33 10 8
7 238 255 179 145 159 158 153 154 154 154 157 157 160 161 167 173 185 179 184 187 192 187 189 191 187 176 182 180 177 175 167 167 155 114 105 53 78 39 13 346 338 349
28 324 172 147 139 149 149 154 158 158 157 160 161 157 161 169 175 182 177 185 192 190 185 191 198 194 191 189 191 192 192 191 199 193 156 238 245 269 325 323 330 338 338
62 2 43 113 140 145 156 165 171 177 172 167 171 165 161 177 185 185 178 189 190 190 195 197 195 195 199 197 197 203 202 208 219 225 235 255 251 281 293 298 316 328 338
85 152 99 142 151 152 147 150 180 183 180 180 180 175 177 180 184 184 186 190 190 191 187 183 183 191 201 199 202 211 213 219 228 235 246 255 246 264 282 295 301 315 317
181 201 195 194 170 158 154 152 130 150 174 175 173 176 186 185 187 186 191 190 190 188 183 181 187 198 206 201 207 214 225 230 237 238 247 250 250 256 272 288 296 306 315
208 214 200 203 188 170 162 153 152 147 148 157 179 180 183 184 181 184 189 185 187 197 195 194 200 206 203 200 210 222 242 243 239 232 231 242 251 250 265 279 292 297 301
216 205 199 198 187 176 161 156 156 152 149 151 160 168 178 179 178 186 189 186 190 198 206 208 210 214 214 211 215 227 247 235 229 225 226 234 249 245 262 278 292 294 295
218 206 197 185 172 162 158 153 151 154 154 158 159 161 170 172 176 185 191 192 199 209 211 216 215 222 222 222 229 236 245 249 236 238 234 235 247 252 260 280 287 287 290
206 205 192 178 172 168 166 165 164 160 159 162 160 167 174 171 172 185 193 200 208 215 217 217 218 222 219 225 233 240 245 257 241 237 234 237 253 251 266 282 290 283 291
189 189 186 176 173 172 166 160 155 151 149 151 155 173 181 186 188 194 200 206 216 220 220 220 225 225 226 232 240 240 239 241 240 246 245 244 246 253 263 278 284 274 280
179 182 178 174 170 167 153 151 152 155 158 162 170 181 188 189 199 206 214 221 224 223 222 226 231 231 235 241 237 234 236 242 254 266 256 247 251 255 263 271 272 270 275
183 175 171 164 165 163 161 156 158 165 162 167 168 184 188 196 207 216 221 222 225 229 232 233 236 237 244 246 243 243 243 248 258 266 257 251 253 260 264 266 266 267 264
174 169 168 166 162 159 158 158 166 168 167 163 175 192 198 202 209 219 226 234 241 239 238 241 241 244 250 252 252 250 247 248 253 255 259 254 254 257 259 261 265 267 259
174 175 170 168 165 173 174 174 174 175 167 167 161 183 201 196 223 239 243 244 247 247 248 250 255 256 255 252 247 246 244 245 247 254 257 258 257 259 260 263 268 266 254